GW1539 Weather Reports


time (UTC)temp
C
wind
direction
speed
KPH
gust
KPH
rain 1hr
cm
rain 24hr
cm
rain mn
cm
humidity
%
barometer
mb
20260509104624 16 275 1.6 16.1 0.00 0.00 0.00 65 1016.9
20260509103125 16 269 4.8 16.1 0.00 0.00 0.00 64 1017.1
20260509101622 16 248 6.4 14.5 0.00 0.00 0.00 63 1017.2
20260509100119 16 236 4.8 14.5 0.00 0.00 0.00 66 1017.1
20260509093123 16 269 0.0 8.0 0.00 0.00 0.00 66 1017.3
20260509091614 16 238 6.4 14.5 0.00 0.00 0.00 59 1017.4
20260509084621 15 288 0.0 0.0 0.00 0.00 0.00 72 1017.6
20260509083119 14 327 0.0 0.0 0.00 0.00 0.00 75 1017.7
20260509080123 13 329 0.0 0.0 0.00 0.00 0.00 76 1017.6
20260509074620 12 316 0.0 0.0 0.00 0.00 0.00 80 1017.7
20260509071623 11 309 0.0 0.0 0.00 0.00 0.00 85 1017.7
20260509064623 10 300 0.0 0.0 0.00 0.00 0.00 95 1017.7
20260509061625 8 234 0.0 0.0 0.00 0.00 0.00 96 1017.8
20260509060119 8 234 0.0 0.0 0.00 0.00 0.00 96 1017.6
20260509053119 6 234 0.0 0.0 0.00 0.00 0.00 96 1017.6
20260509050122 4 234 0.0 0.0 0.00 0.00 0.00 96 1017.6
20260509043118 3 234 0.0 0.0 0.00 0.00 0.00 95 1017.3
20260509041614 3 234 0.0 0.0 0.00 0.00 0.00 95 1017.3
20260509034621 3 234 0.0 0.0 0.00 0.00 0.00 95 1017.2
20260509031621 3 234 0.0 0.0 0.00 0.00 0.00 95 1017.2
20260509024616 4 234 0.0 0.0 0.00 0.00 0.00 95 1017.2
20260509023114 4 234 0.0 0.0 0.00 0.00 0.00 95 1017.2
20260509020116 5 234 0.0 0.0 0.00 0.00 0.00 95 1017.2
20260509013122 5 234 0.0 0.0 0.00 0.00 0.00 95 1017.1
20260509010124 5 234 0.0 0.0 0.00 0.00 0.00 95 1016.9
20260509003121 5 234 0.0 0.0 0.00 0.00 0.00 94 1017.1
20260509000122 6 234 0.0 0.0 0.00 0.00 0.00 94 1017.1
20260508233123 6 234 0.0 0.0 0.00 0.00 0.00 94 1017.0
20260508231612 6 234 0.0 0.0 0.00 0.00 0.00 94 1017.1
20260508224620 6 234 0.0 0.0 0.00 0.00 0.00 94 1017.0
20260508223116 7 234 0.0 0.0 0.00 0.00 0.00 93 1017.2
20260508220148 7 234 0.0 0.0 0.00 0.00 0.00 94 1017.2
20260508214621 7 234 0.0 0.0 0.00 0.00 0.00 93 1017.1
20260508213116 7 234 0.0 0.0 0.00 0.00 0.00 93 1017.1
20260508210127 8 234 0.0 0.0 0.00 0.00 0.00 92 1017.1
20260508203127 9 234 0.0 0.0 0.00 0.00 0.00 92 1016.9
20260508201618 9 234 0.0 0.0 0.00 0.00 0.00 91 1016.8
20260508194614 10 234 0.0 0.0 0.00 0.00 0.00 91 1016.6
20260508193115 10 234 0.0 0.0 0.00 0.00 0.00 91 1016.3
20260508190119 10 234 0.0 0.0 0.00 0.00 0.00 89 1016.3
20260508184619 11 234 0.0 0.0 0.00 0.00 0.00 89 1016.0
20260508181620 11 234 0.0 1.6 0.00 0.00 0.00 87 1015.7
20260508180111 11 234 0.0 1.6 0.00 0.00 0.00 87 1015.7
20260508174609 12 234 0.0 1.6 0.00 0.00 0.00 85 1015.5
20260508171614 13 234 0.0 6.4 0.00 0.00 0.00 79 1015.4
20260508164618 13 233 1.6 6.4 0.00 0.00 0.00 77 1015.5
20260508163118 14 273 3.2 9.7 0.00 0.00 0.00 75 1015.3
20260508160119 14 275 1.6 6.4 0.00 0.00 0.00 76 1015.2
20260508154615 14 232 1.6 8.0 0.00 0.00 0.00 76 1015.1
20260508151622 15 220 3.2 11.3 0.00 0.00 0.00 73 1015.0
20260508150121 15 239 4.8 11.3 0.00 0.00 0.00 72 1015.2
20260508144619 15 225 4.8 11.3 0.00 0.00 0.00 72 1015.3
20260508143108 15 237 4.8 19.3 0.00 0.00 0.00 72 1015.4
20260508140121 15 230 4.8 11.3 0.00 0.00 0.00 72 1015.5
20260508133122 15 196 6.4 14.5 0.00 0.08 0.00 69 1015.7
20260508131618 15 265 3.2 8.0 0.00 0.08 0.00 69 1015.8
20260508124616 15 355 0.0 4.8 0.00 0.89 0.00 69 1015.8
20260508121622 15 247 4.8 12.9 0.00 0.89 0.00 69 1016.0
20260508114619 15 279 4.8 14.5 0.00 0.97 0.00 72 1015.9
20260508113118 15 242 6.4 11.3 0.00 0.97 0.00 71 1016.0
20260508110118 13 281 4.8 16.1 0.00 0.97 0.00 73 1016.3